This demonstration page uses our WeatherBlox Daily Observations layout. Learn more.

Left ArrowRight Arrow

34.74481, -87.66753

Hourly Observations for May 6, 2019

Temp ( °F °C ) Dew Point ( °F °C ) Humidity (%) Winds ( mph kmh ) Pressure ( in mb ) Visibility ( mi km ) Precip ( " mm )
12:53 am 00:53 Clear 57 13.9 54 12.2 90 90 Calm 29.97 1015 10 16 0.00 0.00
1:53 am 01:53 Clear 56 13.3 53 11.7 90 90 Calm 29.97 1015 10 16 0.00 0.00
2:42 am 02:42 Mostly Clear 56 13.3 53 11.7 90 90 Calm 29.99 1016 10 16 0.00 0.00
2:53 am 02:53 Partly Cloudy 55 12.8 53 11.7 93 93 Calm 29.98 1015 9 14 0.00 0.00
3:02 am 03:02 Mostly Cloudy with Mist and Fog 52 11.1 51 10.6 97 97 Calm 30.00 1016 3 5 0.00 0.00
3:08 am 03:08 Partly Cloudy with Mist and Fog 53 11.7 51 10.6 93 93 Calm 29.99 1016 3 4 0.00 0.00
3:14 am 03:14 Mostly Cloudy with Mist and Fog 53 11.7 51 10.6 93 93 Calm 30.00 1016 1 2 0.00 0.00
3:31 am 03:31 Clear with Mist and Fog 54 12.2 52 11.1 93 93 Calm 30.01 1016 2 2 0.00 0.00
3:36 am 03:36 Clear with Mist and Fog 55 12.8 53 11.7 93 93 Calm 30.01 1016 3 5 0.00 0.00
3:49 am 03:49 Mostly Clear with Mist and Fog 54 12 52 11 94 94 Calm 30.01 1016 3 4 0.00 0.00
3:53 am 03:53 Mostly Clear with Mist and Fog 53 11.7 51 10.6 93 93 Calm 30.00 1016 2 3 0.00 0.00
4:07 am 04:07 Mostly Cloudy with Mist and Fog 51 10.6 50 10 96 96 Calm 30.03 1017 1 2 0.00 0.00
4:16 am 04:16 Mostly Cloudy with Mist and Fog 52 11.1 50 10 93 93 Calm 30.04 1017 1 1 0.00 0.00
4:22 am 04:22 Partly Cloudy with Mist and Fog 54 12.2 52 11.1 93 93 Calm 30.03 1017 1 2 0.00 0.00
4:51 am 04:51 Mostly Clear with Mist and Fog 54 12 52 11 94 94 Calm 30.04 1017 3 5 0.00 0.00
4:53 am 04:53 Partly Cloudy with Mist and Fog 54 12.2 52 11.1 93 93 Calm 30.03 1017 5 8 0.00 0.00
4:58 am 04:58 Mostly Cloudy with Mist and Fog 53 11.7 52 11.1 96 96 Calm 30.04 1017 2 3 0.00 0.00
5:08 am 05:08 Partly Cloudy with Mist and Fog 52 11.1 51 10.6 97 97 Calm 30.05 1017 3 5 0.00 0.00
5:37 am 05:37 Mostly Cloudy with Mist and Fog 52 11.1 50 10 93 93 Calm 30.05 1017 3 4 0.00 0.00
5:45 am 05:45 Mostly Cloudy with Mist and Fog 52 11.1 51 10.6 97 97 Calm 30.05 1017 1 2 0.00 0.00
5:53 am 05:53 Mostly Cloudy with Mist and Fog 52 11.1 50 10 93 93 Calm 30.02 1017 1 2 0.00 0.00
6:01 am 06:01 Mostly Cloudy with Fog 52 11.1 50 10 93 93 Calm 30.05 1017 1 1 0.00 0.00
6:35 am 06:35 Mostly Cloudy with Mist and Fog 54 12.2 52 11.1 93 93 Calm 30.05 1018 2 3 0.00 0.00
6:37 am 06:37 Partly Cloudy with Mist and Fog 53 11.7 52 11.1 96 96 Calm 30.05 1018 3 5 0.00 0.00
6:53 am 06:53 Mostly Sunny 54 12.2 53 11.7 97 97 Calm 30.04 1017 10 16 0.00 0.00
7:13 am 07:13 Mostly Cloudy with Mist and Fog 57 13.9 55 12.8 93 93 Calm 30.06 1018 2 2 0.00 0.00
7:22 am 07:22 Mostly Cloudy with Fog 57 13.9 55 12.8 93 93 Calm 30.06 1018 0 0 0.00 0.00
7:45 am 07:45 Mostly Cloudy with Mist and Fog 58 14.4 56 13.3 93 93 Calm 30.07 1018 1 1 0.00 0.00
7:53 am 07:53 Mostly Cloudy with Mist and Fog 60 15.6 58 14.4 93 93 Calm 30.05 1018 2 2 0.00 0.00
7:55 am 07:55 Mostly Cloudy with Mist and Fog 60 15.6 58 14.4 93 93 Calm 30.07 1018 3 5 0.00 0.00
8:07 am 08:07 Partly Cloudy 60 15.6 58 14.4 93 93 Calm 30.06 1018 9 14 0.00 0.00
8:53 am 08:53 Sunny 65 18.3 58 14.4 78 78 E 3 6 30.06 1018 10 16 0.00 0.00
9:53 am 09:53 Sunny 69 20.6 58 14.4 68 68 Calm 30.08 1019 10 16 0.00 0.00
10:53 am 10:53 Mostly Sunny 72 22.2 56 13.3 57 57 S 6 9 30.09 1019 10 16 0.00 0.00
11:53 am 11:53 Sunny 73 22.8 57 13.9 57 57 SE 7 11 30.06 1018 10 16 0.00 0.00
12:53 pm 12:53 Sunny 75 23.9 58 14.4 55 55 E 3 6 30.06 1018 10 16 0.00 0.00
1:53 pm 13:53 Sunny 77 25 57 13.9 50 50 ESE 7 11 30.04 1017 10 16 0.00 0.00
2:53 pm 14:53 Sunny 78 25.6 56 13.3 47 47 VRB 5 7 30.02 1017 10 16 0.00 0.00
3:53 pm 15:53 Sunny 78 25.6 56 13.3 47 47 undefined N/A 30.01 1016 10 16 0.00 0.00
4:53 pm 16:53 Sunny 80 26.7 55 12.8 42 42 NE 5 7 30.03 1017 10 16 0.00 0.00
5:53 pm 17:53 Mostly Sunny 80 26.7 53 11.7 39 39 Calm 30.03 1017 10 16 0.00 0.00
6:53 pm 18:53 Sunny 77 25 56 13.3 48 48 NE 3 6 30.03 1017 10 16 0.00 0.00
7:53 pm 19:53 Clear 70 21.1 60 15.6 71 71 Calm 30.04 1017 10 16 0.00 0.00
8:53 pm 20:53 Clear 67 19.4 60 15.6 79 79 Calm 30.06 1018 10 16 0.00 0.00
9:53 pm 21:53 Clear 64 17.8 58 14.4 81 81 Calm 30.06 1018 10 16 0.00 0.00
10:53 pm 22:53 Clear 64 17.8 59 15 84 84 Calm 30.05 1018 10 16 0.00 0.00
11:53 pm 23:53 Clear 61 16.1 58 14.4 90 90 Calm 30.05 1018 10 16 0.00 0.00

Powered by AerisWeather